User: anonymous   Login
Location: Unspecified
(0.0000°N, 0.0000°E)
Time: 16:18:24
(UTC+00:00)
Language:

GGSE 2 - Orbit

View from above orbital plane
View from above orbital plane
View from above satellite
View from above satellite

Ground track
Ground track

The orbit data is extracted from the following two-line orbital elements,

1  1244U 65016B   19015.88577558 -.00000019  00000-0  24119-4 0  9990
2  1244  70.0773 194.3614 0018846  45.2416 315.0219 13.95622781740459
Epoch (UTC): 15 January 2019 21:15:31
Eccentricity: 0.0018846
inclination: 70.0773°
perigee height: 895 km
apogee height: 923 km
right ascension of ascending node: 194.3614°
argument of perigee: 45.2416°
revolutions per day: 13.95622781
mean anomaly at epoch: 315.0219°
orbit number at epoch: 74045

The dashed part of the orbit path shows where the satellite is in the earth's shadow,  

DLR